Location: Sternwarte Stuttgart
(48.7824°N, 9.1965°E)
Time: 13:19:23
(UTC+00:00)

ISS - Pass Details

Date: 24 April 2025
Orbit: 416 x 420 km, 51.6° (Epoch: 15 May)

Event Time Altitude Azimuth Distance (km) Brightness Sun altitude
Exits shadow 02:30:43 24° 178° (S) 909 -2.4 -15.5°
Maximum altitude 02:31:46 29° 144° (SE) 792 -2.4 -15.4°
Drops below altitude 10° 02:34:44 10° 82° (E) 1,496 -0.1 -15.0°
Sets 02:36:59 0° 71° (ENE) 2,364 1.4 -14.7°
